Regional Weather Roundup
Issued by NWS Sioux Falls, SD

Home | Current Version | Previous Version | Graphics & Text | Print | Product List | Glossary On
Versions: 1 2 3 4 5 6 7 8 9 10 11 12 13 14 15 16 17 18 19 20 21 22 23 24 25 26 27 28 29 30 31 32 33 34 35 36 37 38 39 40 41 42 43 44 45 46 47 48 49 50
000
ASUS43 KFSD 261502
RWRFSD

WEATHER ROUNDUP FOR SE SOUTH DAKOTA/SW MINNESOTA/NW IOWA
NATIONAL WEATHER SERVICE SIOUX FALLS SD
900 AM CST MON JAN 26 2015

NOTE: "FAIR" INDICATES FEW OR NO CLOUDS BELOW 12,000 FEET WITH NO
SIGNIFICANT WEATHER AND OR OBSTRUCTIONS TO VISIBILITY.


SDZ038>040-050-052>070-261600-
SOUTHEAST SOUTH DAKOTA

CITY           SKY/WX    TMP DP  RH WIND       PRES   REMARKS
CHAMBERLAIN    NOT AVBL
HURON          PTCLDY    38  34  85 W13       29.87R
MADISON        FAIR      34  34 100 NW15      29.83R WCI  24
MITCHELL       PTCLDY    38  33  82 W14       29.90R
SIOUX FALLS    MOSUNNY   37  33  85 NW16      29.83R
WINNER         FAIR      42  32  67 W9        29.95S
YANKTON        SUNNY     39  34  81 NW14      29.89R
$$

MNZ071-072-080-081-089-090-097-098-261600-
SOUTHWEST MINNESOTA

CITY           SKY/WX    TMP DP  RH WIND       PRES   REMARKS
FAIRMONT       MOSUNNY   37  28  70 W18       29.74R
JACKSON        PTSUNNY   36  32  87 NW16      29.76R
LUVERNE        MOSUNNY   36  32  87 NW13      29.81R
MARSHALL       CLEAR     36  28  75 NW15      29.79R
MONTEVIDEO     CLEAR     37  37 100 NW9G17    29.77R
PIPESTONE      SUNNY     36  32  87 NW9       29.80R
REDWOOD FALLS  SUNNY     38  32  79 NW12      29.74R
TRACY          SUNNY     38  33  81 NW15G21   29.77R
WINDOM         FAIR      36  32  87 W16       29.76R
WORTHINGTON    PTSUNNY   36  30  80 NW15      29.78S
$$

IAZ001>003-012>014-020>022-031-032-NEZ013-014-SDZ071-261600-
NORTHWEST IOWA

CITY           SKY/WX    TMP DP  RH WIND       PRES   REMARKS
ESTHERVILLE    PTSUNNY   35  31  85 W17       29.75R WCI  25
SIOUX CITY     SUNNY     38  33  82 NW9       29.86R
SPENCER        CLOUDY    37  31  78 NW13      29.79R
$$

ABBREVIATIONS USED IN REMARKS
   TC - TEMPERATURE IN CELSIUS
  WCI - WIND CHILL INDEX
   HX - HEAT INDEX
  VSB - VISIBILITY



USA.gov is the U.S. government's official web portal to all federal, state and local government web resources and services.